Wetterdaten: Montag, 09.09.2013
Datum Zeit Temperatur Luftfeuchte Luftdruck Regen Wind Richtung Richtung Taupunkt Windchill Windben
09.09.2013 00:00 13,0 C 94 % 1020,5 hPa 0,0 l/m 1,3 km/h (1 Bft) SO 135 12,1 C 13,2 C 3,1 km/h (1 Bft)
09.09.2013 00:05 13,0 C 94 % 1020,5 hPa 0,0 l/m 2,3 km/h (1 Bft) S-SO 157 12,1 C 13,1 C 1,9 km/h (1 Bft)
09.09.2013 00:10 12,9 C 95 % 1020,5 hPa 0,0 l/m 1,8 km/h (1 Bft) S-SO 157 12,1 C 13,1 C 3,1 km/h (1 Bft)
09.09.2013 00:15 12,9 C 95 % 1020,5 hPa 0,0 l/m 0,5 km/h (0 Bft) S 180 12,1 C 13,0 C 3,2 km/h (1 Bft)
09.09.2013 00:20 12,8 C 95 % 1020,2 hPa 0,0 l/m 1,0 km/h (0 Bft) O 90 12,0 C 12,9 C 6,4 km/h (2 Bft)
09.09.2013 00:25 12,8 C 95 % 1020,2 hPa 0,0 l/m 1,3 km/h (1 Bft) S-SO 157 12,0 C 12,9 C 2,3 km/h (1 Bft)
09.09.2013 00:30 12,8 C 95 % 1020,2 hPa 0,0 l/m 1,0 km/h (0 Bft) O-NO 67 12,0 C 12,9 C 2,3 km/h (1 Bft)
09.09.2013 00:35 12,8 C 95 % 1020,2 hPa 0,0 l/m 1,1 km/h (1 Bft) O-NO 67 12,0 C 12,9 C 1,8 km/h (1 Bft)
09.09.2013 00:40 12,8 C 95 % 1020,2 hPa 0,0 l/m 1,3 km/h (1 Bft) O 90 12,0 C 12,9 C 1,9 km/h (1 Bft)
09.09.2013 00:45 12,7 C 95 % 1020,2 hPa 0,0 l/m 1,0 km/h (0 Bft) O-NO 67 11,9 C 12,9 C 1,9 km/h (1 Bft)
09.09.2013 00:50 12,8 C 95 % 1020,2 hPa 0,0 l/m 0,5 km/h (0 Bft) O 90 12,0 C 12,9 C 0,0 km/h (0 Bft)
09.09.2013 00:55 12,8 C 95 % 1020,2 hPa 0,7 l/m 0,3 km/h (0 Bft) O-NO 67 12,0 C 12,9 C 1,8 km/h (1 Bft)
09.09.2013 01:00 12,8 C 95 % 1020,3 hPa 0,0 l/m 0,8 km/h (0 Bft) NO 45 12,0 C 12,9 C 1,9 km/h (1 Bft)
09.09.2013 01:05 12,7 C 95 % 1020,3 hPa 0,0 l/m 0,8 km/h (0 Bft) O 90 11,9 C 12,9 C 0,0 km/h (0 Bft)
09.09.2013 01:10 12,7 C 95 % 1020,3 hPa 0,0 l/m 0,2 km/h (0 Bft) SO 135 11,9 C 12,9 C 0,0 km/h (0 Bft)
09.09.2013 01:15 12,7 C 95 % 1020,3 hPa 0,0 l/m 0,2 km/h (0 Bft) SO 135 11,9 C 12,9 C 0,0 km/h (0 Bft)
09.09.2013 01:20 12,7 C 95 % 1020,4 hPa 0,7 l/m 0,2 km/h (0 Bft) SO 135 11,9 C 12,9 C 0,0 km/h (0 Bft)
09.09.2013 01:25 12,7 C 95 % 1020,4 hPa 0,0 l/m 0,3 km/h (0 Bft) SO 135 11,9 C 12,9 C 2,4 km/h (1 Bft)
09.09.2013 01:30 12,6 C 95 % 1020,4 hPa 0,0 l/m 0,3 km/h (0 Bft) O-SO 112 11,8 C 12,8 C 0,0 km/h (0 Bft)
09.09.2013 01:35 12,6 C 95 % 1020,4 hPa 0,0 l/m 1,0 km/h (0 Bft) NO 45 11,8 C 12,8 C 2,1 km/h (1 Bft)
09.09.2013 01:40 12,6 C 95 % 1020,5 hPa 0,7 l/m 0,8 km/h (0 Bft) O 90 11,8 C 12,7 C 0,0 km/h (0 Bft)
09.09.2013 01:45 12,6 C 95 % 1020,5 hPa 0,0 l/m 0,2 km/h (0 Bft) O-SO 112 11,8 C 12,7 C 0,0 km/h (0 Bft)
09.09.2013 01:50 12,6 C 95 % 1020,5 hPa 0,7 l/m 0,2 km/h (0 Bft) S-SO 157 11,8 C 12,7 C 4,2 km/h (1 Bft)
09.09.2013 01:55 12,6 C 95 % 1020,5 hPa 0,0 l/m 1,6 km/h (1 Bft) O-SO 112 11,8 C 12,7 C 2,9 km/h (1 Bft)
09.09.2013 02:00 12,6 C 95 % 1020,2 hPa 0,0 l/m 2,1 km/h (1 Bft) O-NO 67 11,8 C 12,7 C 0,0 km/h (0 Bft)
09.09.2013 02:05 12,5 C 95 % 1020,2 hPa 0,0 l/m 0,6 km/h (0 Bft) O 90 11,7 C 12,6 C 0,0 km/h (0 Bft)
09.09.2013 02:10 12,6 C 95 % 1020,2 hPa 0,0 l/m 0,2 km/h (0 Bft) O 90 11,8 C 12,6 C 0,0 km/h (0 Bft)
09.09.2013 02:15 12,6 C 95 % 1020,2 hPa 0,0 l/m 1,0 km/h (0 Bft) S-SO 157 11,8 C 12,6 C 4,2 km/h (1 Bft)
09.09.2013 02:20 12,6 C 95 % 1020,2 hPa 0,0 l/m 2,1 km/h (1 Bft) SO 135 11,8 C 12,6 C 0,0 km/h (0 Bft)
09.09.2013 02:25 12,5 C 95 % 1020,2 hPa 0,0 l/m 2,7 km/h (1 Bft) S-SW 202 11,7 C 12,6 C 0,0 km/h (0 Bft)
09.09.2013 02:30 12,5 C 95 % 1020,2 hPa 0,0 l/m 2,4 km/h (1 Bft) NW 315 11,7 C 12,6 C 5,3 km/h (1 Bft)
09.09.2013 02:35 12,4 C 95 % 1020,2 hPa 0,0 l/m 2,1 km/h (1 Bft) SO 135 11,6 C 12,6 C 5,5 km/h (1 Bft)
09.09.2013 02:40 12,4 C 95 % 1020,2 hPa 0,0 l/m 3,5 km/h (1 Bft) SO 135 11,6 C 12,6 C 8,2 km/h (2 Bft)
09.09.2013 02:45 12,4 C 95 % 1020,2 hPa 0,0 l/m 4,7 km/h (1 Bft) O-SO 112 11,6 C 12,5 C 2,9 km/h (1 Bft)
09.09.2013 02:50 12,3 C 95 % 1020,2 hPa 0,0 l/m 4,8 km/h (1 Bft) W-SW 247 11,5 C 12,4 C 10,0 km/h (2 Bft)
09.09.2013 02:55 12,2 C 95 % 1020,2 hPa 0,7 l/m 4,7 km/h (1 Bft) S 180 11,4 C 12,4 C 6,6 km/h (2 Bft)
09.09.2013 03:00 12,2 C 95 % 1020,2 hPa 0,0 l/m 5,1 km/h (1 Bft) S-SO 157 11,4 C 12,3 C 10,9 km/h (2 Bft)
09.09.2013 03:05 12,1 C 95 % 1020,2 hPa 0,0 l/m 6,0 km/h (2 Bft) S-SW 202 11,3 C 12,0 C 8,5 km/h (2 Bft)
09.09.2013 03:10 12,0 C 95 % 1020,2 hPa 0,7 l/m 6,1 km/h (2 Bft) S-SO 157 11,2 C 12,0 C 6,8 km/h (2 Bft)
09.09.2013 03:15 12,0 C 95 % 1020,2 hPa 0,0 l/m 7,4 km/h (2 Bft) S-SO 157 11,2 C 10,9 C 9,0 km/h (2 Bft)
09.09.2013 03:20 11,9 C 95 % 1020,6 hPa 0,0 l/m 7,7 km/h (2 Bft) S-SO 157 11,1 C 10,6 C 15,6 km/h (3 Bft)
09.09.2013 03:25 11,9 C 95 % 1020,6 hPa 0,7 l/m 8,4 km/h (2 Bft) SW 225 11,1 C 10,0 C 7,1 km/h (2 Bft)
09.09.2013 03:30 11,9 C 95 % 1020,6 hPa 0,0 l/m 8,2 km/h (2 Bft) S 180 11,1 C 10,1 C 18,2 km/h (3 Bft)
09.09.2013 03:35 11,9 C 95 % 1020,6 hPa 0,7 l/m 7,1 km/h (2 Bft) S-SO 157 11,1 C 11,0 C 5,5 km/h (1 Bft)
09.09.2013 03:40 11,9 C 95 % 1020,9 hPa 0,0 l/m 7,6 km/h (2 Bft) S-SO 157 11,1 C 10,6 C 12,7 km/h (3 Bft)
09.09.2013 03:45 11,9 C 95 % 1020,9 hPa 0,0 l/m 7,2 km/h (2 Bft) S-SW 202 11,1 C 11,0 C 5,8 km/h (2 Bft)
09.09.2013 03:50 11,8 C 95 % 1020,9 hPa 0,7 l/m 7,7 km/h (2 Bft) S-SW 202 11,0 C 10,4 C 11,6 km/h (2 Bft)
09.09.2013 03:55 11,4 C 95 % 1020,9 hPa 0,7 l/m 8,0 km/h (2 Bft) SO 135 10,6 C 9,9 C 15,3 km/h (3 Bft)
09.09.2013 04:00 11,1 C 95 % 1021,4 hPa 0,0 l/m 10,1 km/h (2 Bft) S 180 10,3 C 7,9 C 16,6 km/h (3 Bft)
09.09.2013 04:05 11,0 C 95 % 1021,4 hPa 0,0 l/m 10,3 km/h (2 Bft) S 180 10,2 C 7,5 C 13,7 km/h (3 Bft)
09.09.2013 04:10 10,9 C 95 % 1021,4 hPa 0,0 l/m 9,2 km/h (2 Bft) S-SO 157 10,1 C 8,0 C 20,3 km/h (4 Bft)
09.09.2013 04:15 10,8 C 95 % 1021,4 hPa 0,7 l/m 8,5 km/h (2 Bft) O-SO 112 10,0 C 8,4 C 12,1 km/h (2 Bft)
09.09.2013 04:20 10,8 C 95 % 1021,4 hPa 0,0 l/m 7,7 km/h (2 Bft) S 180 10,0 C 9,2 C 9,8 km/h (2 Bft)
09.09.2013 04:25 10,8 C 95 % 1021,4 hPa 0,0 l/m 6,1 km/h (2 Bft) W-SW 247 10,0 C 10,4 C 8,4 km/h (2 Bft)
09.09.2013 04:30 10,8 C 95 % 1021,4 hPa 0,7 l/m 6,3 km/h (2 Bft) S-SW 202 10,0 C 10,4 C 6,6 km/h (2 Bft)
09.09.2013 04:35 10,8 C 95 % 1021,4 hPa 0,0 l/m 6,1 km/h (2 Bft) S 180 10,0 C 10,4 C 9,8 km/h (2 Bft)
09.09.2013 04:40 10,9 C 95 % 1021,7 hPa 0,0 l/m 6,1 km/h (2 Bft) S-SO 157 10,1 C 10,4 C 6,1 km/h (2 Bft)
09.09.2013 04:45 10,9 C 95 % 1021,7 hPa 0,0 l/m 6,1 km/h (2 Bft) S 180 10,1 C 10,6 C 2,6 km/h (1 Bft)
09.09.2013 04:50 10,9 C 95 % 1021,7 hPa 0,0 l/m 5,1 km/h (1 Bft) S 180 10,1 C 10,8 C 6,8 km/h (2 Bft)
09.09.2013 04:55 10,9 C 95 % 1021,7 hPa 0,0 l/m 4,2 km/h (1 Bft) S 180 10,1 C 11,0 C 4,8 km/h (1 Bft)
09.09.2013 05:00 10,9 C 95 % 1021,4 hPa 0,0 l/m 5,3 km/h (1 Bft) S 180 10,1 C 10,8 C 7,7 km/h (2 Bft)
09.09.2013 05:05 10,9 C 95 % 1021,4 hPa 0,0 l/m 5,1 km/h (1 Bft) O 90 10,1 C 10,8 C 5,1 km/h (1 Bft)
09.09.2013 05:10 10,8 C 95 % 1021,4 hPa 0,0 l/m 5,3 km/h (1 Bft) S 180 10,0 C 10,8 C 9,2 km/h (2 Bft)
09.09.2013 05:15 10,8 C 95 % 1021,4 hPa 0,0 l/m 6,8 km/h (2 Bft) S 180 10,0 C 10,1 C 9,7 km/h (2 Bft)
09.09.2013 05:20 10,7 C 95 % 1021,6 hPa 0,0 l/m 6,8 km/h (2 Bft) SO 135 9,9 C 10,0 C 9,3 km/h (2 Bft)
09.09.2013 05:25 10,7 C 95 % 1021,6 hPa 0,0 l/m 6,1 km/h (2 Bft) S-SO 157 9,9 C 10,3 C 5,1 km/h (1 Bft)
09.09.2013 05:30 10,6 C 95 % 1021,6 hPa 0,0 l/m 6,4 km/h (2 Bft) S-SO 157 9,8 C 10,2 C 12,9 km/h (3 Bft)
09.09.2013 05:35 10,6 C 95 % 1021,6 hPa 0,0 l/m 7,6 km/h (2 Bft) S-SO 157 9,8 C 9,0 C 13,5 km/h (3 Bft)
09.09.2013 05:40 10,5 C 95 % 1021,6 hPa 0,0 l/m 8,2 km/h (2 Bft) W 270 9,7 C 8,5 C 5,8 km/h (2 Bft)
09.09.2013 05:45 10,6 C 95 % 1021,6 hPa 0,0 l/m 7,2 km/h (2 Bft) S 180 9,8 C 9,4 C 6,1 km/h (2 Bft)
09.09.2013 05:50 10,6 C 95 % 1021,6 hPa 0,0 l/m 6,6 km/h (2 Bft) S 180 9,8 C 10,0 C 9,3 km/h (2 Bft)
09.09.2013 05:55 10,7 C 95 % 1021,6 hPa 0,0 l/m 6,1 km/h (2 Bft) S 180 9,9 C 10,3 C 3,1 km/h (1 Bft)
09.09.2013 06:00 10,7 C 95 % 1021,8 hPa 0,0 l/m 5,5 km/h (1 Bft) S-SW 202 9,9 C 10,5 C 6,8 km/h (2 Bft)
09.09.2013 06:05 10,4 C 95 % 1021,8 hPa 0,0 l/m 7,1 km/h (2 Bft) NW 315 9,6 C 9,5 C 11,9 km/h (2 Bft)
09.09.2013 06:10 10,2 C 95 % 1021,8 hPa 0,0 l/m 9,0 km/h (2 Bft) W-NW 292 9,4 C 7,4 C 9,5 km/h (2 Bft)
09.09.2013 06:15 10,1 C 95 % 1021,8 hPa 0,0 l/m 8,2 km/h (2 Bft) S 180 9,3 C 8,0 C 9,5 km/h (2 Bft)
09.09.2013 06:20 10,1 C 95 % 1021,8 hPa 0,0 l/m 6,8 km/h (2 Bft) SO 135 9,3 C 9,2 C 9,3 km/h (2 Bft)
09.09.2013 06:25 10,1 C 95 % 1021,8 hPa 0,0 l/m 6,3 km/h (2 Bft) S 180 9,3 C 9,6 C 7,4 km/h (2 Bft)
09.09.2013 06:30 10,1 C 95 % 1021,8 hPa 0,0 l/m 6,3 km/h (2 Bft) S-SW 202 9,3 C 9,7 C 12,9 km/h (3 Bft)
09.09.2013 06:35 10,1 C 95 % 1021,8 hPa 0,0 l/m 6,0 km/h (2 Bft) S-SW 202 9,3 C 9,8 C 7,9 km/h (2 Bft)
09.09.2013 06:40 10,1 C 95 % 1022,0 hPa 0,0 l/m 5,1 km/h (1 Bft) S-SO 157 9,3 C 10,0 C 3,5 km/h (1 Bft)
09.09.2013 06:45 10,2 C 95 % 1022,0 hPa 0,0 l/m 3,1 km/h (1 Bft) SO 135 9,4 C 10,3 C 4,0 km/h (1 Bft)
09.09.2013 06:50 10,2 C 95 % 1022,0 hPa 0,0 l/m 1,6 km/h (1 Bft) O-SO 112 9,4 C 10,3 C 1,9 km/h (1 Bft)
09.09.2013 06:55 10,2 C 95 % 1022,0 hPa 0,0 l/m 1,8 km/h (1 Bft) O-SO 112 9,4 C 10,3 C 2,1 km/h (1 Bft)
09.09.2013 07:00 10,3 C 95 % 1022,0 hPa 0,0 l/m 1,8 km/h (1 Bft) O-SO 112 9,5 C 10,4 C 2,4 km/h (1 Bft)
09.09.2013 07:05 10,4 C 95 % 1022,0 hPa 0,0 l/m 1,8 km/h (1 Bft) O-SO 112 9,6 C 10,4 C 4,0 km/h (1 Bft)
09.09.2013 07:10 10,3 C 95 % 1022,0 hPa 0,0 l/m 1,9 km/h (1 Bft) S-SO 157 9,5 C 10,4 C 4,3 km/h (1 Bft)
09.09.2013 07:15 10,3 C 95 % 1022,0 hPa 0,0 l/m 2,7 km/h (1 Bft) O-SO 112 9,5 C 10,4 C 3,4 km/h (1 Bft)
09.09.2013 07:20 10,4 C 95 % 1022,1 hPa 0,7 l/m 3,2 km/h (1 Bft) S-SW 202 9,6 C 10,4 C 6,0 km/h (2 Bft)
09.09.2013 07:25 10,4 C 95 % 1022,1 hPa 0,0 l/m 3,9 km/h (1 Bft) SO 135 9,6 C 10,4 C 11,4 km/h (2 Bft)
09.09.2013 07:30 10,4 C 95 % 1022,1 hPa 0,0 l/m 4,5 km/h (1 Bft) SO 135 9,6 C 10,3 C 11,7 km/h (2 Bft)
09.09.2013 07:35 10,4 C 95 % 1022,1 hPa 0,0 l/m 5,3 km/h (1 Bft) S 180 9,6 C 10,1 C 14,5 km/h (3 Bft)
09.09.2013 07:40 10,4 C 95 % 1022,2 hPa 0,0 l/m 5,8 km/h (2 Bft) SO 135 9,6 C 9,9 C 7,4 km/h (2 Bft)
09.09.2013 07:45 10,4 C 95 % 1022,2 hPa 0,0 l/m 6,8 km/h (2 Bft) S 180 9,6 C 9,4 C 4,3 km/h (1 Bft)
09.09.2013 07:50 10,5 C 95 % 1022,2 hPa 0,0 l/m 6,3 km/h (2 Bft) S-SO 157 9,7 C 9,8 C 7,4 km/h (2 Bft)
09.09.2013 07:55 10,5 C 95 % 1022,2 hPa 0,0 l/m 6,3 km/h (2 Bft) SO 135 9,7 C 9,9 C 11,4 km/h (2 Bft)
09.09.2013 08:00 10,6 C 95 % 1022,2 hPa 0,7 l/m 6,8 km/h (2 Bft) SO 135 9,8 C 9,6 C 8,4 km/h (2 Bft)
09.09.2013 08:05 10,8 C 95 % 1022,2 hPa 0,0 l/m 6,9 km/h (2 Bft) S-SO 157 10,0 C 9,7 C 6,1 km/h (2 Bft)
09.09.2013 08:10 10,9 C 95 % 1022,2 hPa 0,0 l/m 6,8 km/h (2 Bft) SO 135 10,1 C 10,0 C 8,9 km/h (2 Bft)
09.09.2013 08:15 11,1 C 95 % 1022,2 hPa 0,0 l/m 5,5 km/h (1 Bft) S-SW 202 10,3 C 10,7 C 10,5 km/h (2 Bft)
09.09.2013 08:20 11,0 C 95 % 1022,4 hPa 0,0 l/m 5,1 km/h (1 Bft) S-SW 202 10,2 C 10,8 C 6,1 km/h (2 Bft)
09.09.2013 08:25 11,1 C 95 % 1022,4 hPa 0,0 l/m 5,3 km/h (1 Bft) O-SO 112 10,3 C 10,9 C 5,3 km/h (1 Bft)
09.09.2013 08:30 11,6 C 95 % 1022,4 hPa 0,0 l/m 5,5 km/h (1 Bft) S 180 10,8 C 11,0 C 6,0 km/h (2 Bft)
09.09.2013 08:35 11,5 C 95 % 1022,4 hPa 0,0 l/m 5,3 km/h (1 Bft) S 180 10,7 C 11,3 C 3,4 km/h (1 Bft)
09.09.2013 08:40 11,5 C 95 % 1022,7 hPa 0,0 l/m 6,1 km/h (2 Bft) S 180 10,7 C 11,3 C 9,7 km/h (2 Bft)
09.09.2013 08:45 11,5 C 95 % 1022,7 hPa 0,0 l/m 8,4 km/h (2 Bft) S 180 10,7 C 9,6 C 10,8 km/h (2 Bft)
09.09.2013 08:50 11,6 C 95 % 1022,7 hPa 0,0 l/m 9,0 km/h (2 Bft) S-SW 202 10,8 C 9,2 C 6,4 km/h (2 Bft)
09.09.2013 08:55 11,8 C 95 % 1022,7 hPa 0,0 l/m 8,0 km/h (2 Bft) S 180 11,0 C 9,9 C 8,9 km/h (2 Bft)
09.09.2013 09:00 12,0 C 94 % 1023,0 hPa 0,0 l/m 7,9 km/h (2 Bft) S 180 11,1 C 10,1 C 12,6 km/h (3 Bft)
09.09.2013 09:05 12,9 C 94 % 1023,0 hPa 0,0 l/m 7,1 km/h (2 Bft) S 180 12,0 C 11,2 C 4,5 km/h (1 Bft)
09.09.2013 09:10 13,1 C 92 % 1023,0 hPa 0,0 l/m 6,9 km/h (2 Bft) S-SW 202 11,8 C 11,8 C 8,7 km/h (2 Bft)
09.09.2013 09:15 12,0 C 92 % 1023,0 hPa 0,0 l/m 7,2 km/h (2 Bft) S-SW 202 10,7 C 11,3 C 5,6 km/h (1 Bft)
09.09.2013 09:20 11,7 C 92 % 1023,2 hPa 0,0 l/m 7,4 km/h (2 Bft) S 180 10,4 C 10,6 C 8,2 km/h (2 Bft)
09.09.2013 09:25 11,2 C 92 % 1023,2 hPa 0,0 l/m 6,8 km/h (2 Bft) S 180 9,9 C 10,6 C 9,5 km/h (2 Bft)
09.09.2013 09:30 10,9 C 91 % 1023,2 hPa 0,0 l/m 7,4 km/h (2 Bft) S-SO 157 9,5 C 9,7 C 9,2 km/h (2 Bft)
09.09.2013 09:35 10,8 C 91 % 1023,2 hPa 0,0 l/m 8,0 km/h (2 Bft) S 180 9,4 C 8,6 C 13,2 km/h (3 Bft)
09.09.2013 09:40 10,6 C 91 % 1023,3 hPa 0,7 l/m 7,7 km/h (2 Bft) S-SO 157 9,2 C 9,0 C 7,4 km/h (2 Bft)
09.09.2013 09:45 10,4 C 91 % 1023,3 hPa 0,0 l/m 7,7 km/h (2 Bft) W-SW 247 9,0 C 8,5 C 10,3 km/h (2 Bft)
09.09.2013 09:50 10,3 C 92 % 1023,3 hPa 0,7 l/m 7,6 km/h (2 Bft) SO 135 9,1 C 8,5 C 9,5 km/h (2 Bft)
09.09.2013 09:55 10,3 C 92 % 1023,3 hPa 0,0 l/m 7,6 km/h (2 Bft) S-SW 202 9,1 C 8,5 C 10,9 km/h (2 Bft)
09.09.2013 10:00 10,1 C 92 % 1023,6 hPa 0,0 l/m 8,2 km/h (2 Bft) S 180 8,9 C 7,8 C 6,6 km/h (2 Bft)
09.09.2013 10:05 10,1 C 92 % 1023,6 hPa 0,0 l/m 8,5 km/h (2 Bft) S 180 8,9 C 7,3 C 10,1 km/h (2 Bft)
09.09.2013 10:10 10,2 C 92 % 1023,6 hPa 0,0 l/m 8,5 km/h (2 Bft) S 180 9,0 C 7,3 C 8,2 km/h (2 Bft)
09.09.2013 10:15 10,0 C 92 % 1023,6 hPa 0,0 l/m 9,2 km/h (2 Bft) S 180 8,8 C 6,8 C 17,1 km/h (3 Bft)
09.09.2013 10:20 9,9 C 92 % 1023,9 hPa 0,7 l/m 9,8 km/h (2 Bft) S-SO 157 8,7 C 6,0 C 11,1 km/h (2 Bft)
09.09.2013 10:25 10,0 C 92 % 1023,9 hPa 0,0 l/m 10,0 km/h (2 Bft) S 180 8,8 C 5,7 C 9,2 km/h (2 Bft)
09.09.2013 10:30 10,1 C 92 % 1023,9 hPa 0,0 l/m 9,0 km/h (2 Bft) S 180 8,9 C 6,7 C 6,4 km/h (2 Bft)
09.09.2013 10:35 10,4 C 92 % 1023,9 hPa 0,0 l/m 9,7 km/h (2 Bft) S 180 9,2 C 6,3 C 16,6 km/h (3 Bft)
09.09.2013 10:40 10,6 C 92 % 1024,3 hPa 0,0 l/m 9,8 km/h (2 Bft) W-SW 247 9,4 C 6,5 C 21,1 km/h (4 Bft)
09.09.2013 10:45 10,2 C 92 % 1024,3 hPa 0,0 l/m 10,0 km/h (2 Bft) S 180 9,0 C 6,0 C 19,0 km/h (3 Bft)
09.09.2013 10:50 10,4 C 92 % 1024,3 hPa 0,0 l/m 8,7 km/h (2 Bft) S 180 9,2 C 7,3 C 12,1 km/h (2 Bft)
09.09.2013 10:55 10,2 C 91 % 1024,3 hPa 0,0 l/m 8,9 km/h (2 Bft) S-SO 157 8,8 C 7,1 C 18,2 km/h (3 Bft)
09.09.2013 11:00 10,2 C 91 % 1024,3 hPa 0,0 l/m 9,8 km/h (2 Bft) S 180 8,8 C 6,5 C 15,1 km/h (3 Bft)
09.09.2013 11:05 10,6 C 90 % 1024,3 hPa 0,0 l/m 9,7 km/h (2 Bft) S-SO 157 9,0 C 7,3 C 9,2 km/h (2 Bft)
09.09.2013 11:10 11,1 C 89 % 1024,3 hPa 0,0 l/m 9,0 km/h (2 Bft) S-SW 202 9,4 C 8,3 C 11,9 km/h (2 Bft)
09.09.2013 11:15 10,9 C 88 % 1024,3 hPa 0,0 l/m 9,5 km/h (2 Bft) S-SW 202 9,0 C 8,8 C 8,0 km/h (2 Bft)
09.09.2013 11:20 10,4 C 87 % 1024,5 hPa 0,0 l/m 10,1 km/h (2 Bft) S 180 8,3 C 7,6 C 13,4 km/h (3 Bft)
09.09.2013 11:25 10,1 C 88 % 1024,5 hPa 0,0 l/m 10,6 km/h (2 Bft) S 180 8,2 C 6,1 C 8,0 km/h (2 Bft)
09.09.2013 11:30 10,2 C 88 % 1024,5 hPa 0,0 l/m 10,6 km/h (2 Bft) S-SW 202 8,3 C 5,9 C 7,9 km/h (2 Bft)
09.09.2013 11:35 10,7 C 88 % 1024,5 hPa 0,0 l/m 9,0 km/h (2 Bft) S 180 8,8 C 7,4 C 12,2 km/h (2 Bft)
09.09.2013 11:40 11,0 C 89 % 1024,6 hPa 0,0 l/m 7,6 km/h (2 Bft) NW 315 9,3 C 9,3 C 9,3 km/h (2 Bft)
09.09.2013 11:45 11,1 C 88 % 1024,6 hPa 0,0 l/m 8,4 km/h (2 Bft) S-SO 157 9,2 C 9,3 C 16,3 km/h (3 Bft)
09.09.2013 11:50 11,1 C 88 % 1024,6 hPa 0,0 l/m 8,9 km/h (2 Bft) S 180 9,2 C 9,4 C 12,2 km/h (2 Bft)
09.09.2013 11:55 13,3 C 85 % 1024,6 hPa 0,0 l/m 9,0 km/h (2 Bft) W-SW 247 10,8 C 10,5 C 14,3 km/h (3 Bft)
09.09.2013 12:00 13,0 C 84 % 1025,2 hPa 0,0 l/m 8,4 km/h (2 Bft) S-SW 202 10,4 C 12,4 C 8,0 km/h (2 Bft)
09.09.2013 12:05 13,3 C 79 % 1025,2 hPa 0,0 l/m 9,0 km/h (2 Bft) S 180 9,7 C 12,5 C 10,3 km/h (2 Bft)
09.09.2013 12:10 13,3 C 77 % 1025,2 hPa 0,0 l/m 10,0 km/h (2 Bft) S-SO 157 9,4 C 11,9 C 14,6 km/h (3 Bft)
09.09.2013 12:15 11,9 C 79 % 1025,2 hPa 0,0 l/m 10,5 km/h (2 Bft) S 180 8,4 C 10,9 C 15,1 km/h (3 Bft)
09.09.2013 12:20 12,5 C 77 % 1024,6 hPa 0,0 l/m 11,1 km/h (2 Bft) S 180 8,6 C 10,3 C 21,7 km/h (4 Bft)
09.09.2013 12:25 12,1 C 78 % 1024,6 hPa 0,0 l/m 11,4 km/h (2 Bft) S 180 8,4 C 10,1 C 18,2 km/h (3 Bft)
09.09.2013 12:30 12,5 C 78 % 1024,6 hPa 0,0 l/m 11,7 km/h (2 Bft) S-SO 157 8,8 C 10,0 C 21,7 km/h (4 Bft)
09.09.2013 12:35 12,1 C 77 % 1024,6 hPa 0,0 l/m 10,6 km/h (2 Bft) S 180 8,2 C 11,3 C 15,9 km/h (3 Bft)
09.09.2013 12:40 12,2 C 78 % 1024,9 hPa 0,0 l/m 9,2 km/h (2 Bft) S-SO 157 8,5 C 11,9 C 15,6 km/h (3 Bft)
09.09.2013 12:45 12,3 C 82 % 1024,9 hPa 0,0 l/m 8,2 km/h (2 Bft) S 180 9,3 C 12,3 C 8,5 km/h (2 Bft)
09.09.2013 12:50 12,3 C 79 % 1024,9 hPa 0,0 l/m 7,1 km/h (2 Bft) S 180 8,8 C 13,3 C 6,3 km/h (2 Bft)
09.09.2013 12:55 12,2 C 81 % 1024,9 hPa 0,0 l/m 7,1 km/h (2 Bft) SW 225 9,0 C 13,2 C 10,5 km/h (2 Bft)
09.09.2013 13:00 12,2 C 80 % 1024,8 hPa 0,0 l/m 7,6 km/h (2 Bft) S-SO 157 8,9 C 12,8 C 8,5 km/h (2 Bft)
09.09.2013 13:05 12,8 C 77 % 1024,8 hPa 0,0 l/m 8,4 km/h (2 Bft) S 180 8,9 C 12,2 C 15,0 km/h (3 Bft)
09.09.2013 13:10 12,5 C 76 % 1024,8 hPa 0,0 l/m 8,0 km/h (2 Bft) S-SO 157 8,4 C 13,5 C 10,5 km/h (2 Bft)
09.09.2013 13:15 11,8 C 78 % 1024,8 hPa 0,0 l/m 7,6 km/h (2 Bft) S 180 8,1 C 12,8 C 4,3 km/h (1 Bft)
09.09.2013 13:20 13,2 C 76 % 1024,8 hPa 0,0 l/m 7,4 km/h (2 Bft) S-SO 157 9,1 C 12,9 C 11,3 km/h (2 Bft)
09.09.2013 13:25 14,2 C 76 % 1024,8 hPa 0,0 l/m 7,1 km/h (2 Bft) S-SO 157 10,0 C 14,9 C 12,4 km/h (3 Bft)
09.09.2013 13:30 14,6 C 71 % 1024,8 hPa 0,0 l/m 7,7 km/h (2 Bft) S-SO 157 9,4 C 15,2 C 12,1 km/h (2 Bft)
09.09.2013 13:35 14,6 C 66 % 1024,8 hPa 0,0 l/m 8,7 km/h (2 Bft) S 180 8,3 C 15,1 C 10,0 km/h (2 Bft)
09.09.2013 13:40 14,7 C 65 % 1024,7 hPa 0,0 l/m 8,2 km/h (2 Bft) S-SO 157 8,2 C 15,8 C 6,1 km/h (2 Bft)
09.09.2013 13:45 15,5 C 58 % 1024,7 hPa 0,0 l/m 7,7 km/h (2 Bft) S 180 7,3 C 16,6 C 15,3 km/h (3 Bft)
09.09.2013 13:50 14,8 C 56 % 1024,7 hPa 0,0 l/m 8,4 km/h (2 Bft) S 180 6,1 C 15,9 C 12,7 km/h (3 Bft)
09.09.2013 13:55 15,4 C 57 % 1024,7 hPa 0,0 l/m 9,5 km/h (2 Bft) S-SO 157 6,9 C 15,4 C 15,0 km/h (3 Bft)
09.09.2013 14:00 15,5 C 57 % 1024,9 hPa 0,0 l/m 8,9 km/h (2 Bft) S-SW 202 7,0 C 15,7 C 5,8 km/h (2 Bft)
09.09.2013 14:05 16,1 C 56 % 1024,9 hPa 0,0 l/m 7,6 km/h (2 Bft) S 180 7,3 C 16,9 C 6,3 km/h (2 Bft)
09.09.2013 14:10 16,0 C 52 % 1024,9 hPa 0,0 l/m 7,2 km/h (2 Bft) S 180 6,2 C 17,3 C 11,9 km/h (2 Bft)
09.09.2013 14:15 16,4 C 53 % 1024,9 hPa 0,0 l/m 8,4 km/h (2 Bft) S-SW 202 6,8 C 16,9 C 9,7 km/h (2 Bft)
09.09.2013 14:20 16,3 C 50 % 1024,8 hPa 0,0 l/m 8,4 km/h (2 Bft) S 180 5,9 C 17,2 C 16,1 km/h (3 Bft)
09.09.2013 14:25 16,8 C 54 % 1024,8 hPa 0,0 l/m 8,4 km/h (2 Bft) S 180 7,4 C 17,1 C 6,6 km/h (2 Bft)
09.09.2013 14:30 17,2 C 54 % 1024,8 hPa 0,0 l/m 7,1 km/h (2 Bft) SW 225 7,8 C 18,2 C 7,9 km/h (2 Bft)
09.09.2013 14:35 16,8 C 50 % 1024,8 hPa 0,0 l/m 6,9 km/h (2 Bft) S-SW 202 6,3 C 18,4 C 14,8 km/h (3 Bft)
09.09.2013 14:40 16,7 C 51 % 1024,7 hPa 0,0 l/m 8,0 km/h (2 Bft) S-SO 157 6,5 C 17,9 C 11,6 km/h (2 Bft)
09.09.2013 14:45 16,5 C 52 % 1024,7 hPa 0,0 l/m 8,2 km/h (2 Bft) SO 135 6,6 C 17,6 C 10,1 km/h (2 Bft)
09.09.2013 14:50 16,7 C 48 % 1024,7 hPa 0,0 l/m 8,4 km/h (2 Bft) SO 135 5,6 C 17,8 C 16,6 km/h (3 Bft)
09.09.2013 14:55 16,3 C 48 % 1024,7 hPa 0,0 l/m 8,5 km/h (2 Bft) S 180 5,3 C 17,6 C 11,9 km/h (2 Bft)
09.09.2013 15:00 16,2 C 48 % 1024,3 hPa 0,0 l/m 9,5 km/h (2 Bft) SO 135 5,2 C 17,1 C 9,8 km/h (2 Bft)
09.09.2013 15:05 16,3 C 48 % 1024,3 hPa 0,0 l/m 8,5 km/h (2 Bft) S 180 5,3 C 17,5 C 7,2 km/h (2 Bft)
09.09.2013 15:10 16,7 C 43 % 1024,3 hPa 0,0 l/m 8,4 km/h (2 Bft) S-SW 202 4,1 C 17,7 C 11,6 km/h (2 Bft)
09.09.2013 15:15 16,4 C 46 % 1024,3 hPa 0,0 l/m 7,9 km/h (2 Bft) SO 135 4,8 C 18,0 C 10,9 km/h (2 Bft)
09.09.2013 15:20 16,2 C 46 % 1024,3 hPa 0,0 l/m 7,6 km/h (2 Bft) S-SO 157 4,6 C 18,5 C 16,9 km/h (3 Bft)
09.09.2013 15:25 15,6 C 48 % 1024,3 hPa 0,0 l/m 7,1 km/h (2 Bft) N-NO 22 4,6 C 18,8 C 8,2 km/h (2 Bft)
09.09.2013 15:30 15,5 C 49 % 1024,3 hPa 0,0 l/m 7,7 km/h (2 Bft) S 180 4,8 C 18,5 C 12,9 km/h (3 Bft)
09.09.2013 15:35 15,1 C 48 % 1024,3 hPa 0,0 l/m 8,9 km/h (2 Bft) S 180 4,2 C 17,6 C 8,4 km/h (2 Bft)
09.09.2013 15:40 15,5 C 51 % 1024,0 hPa 0,0 l/m 8,4 km/h (2 Bft) O-SO 112 5,4 C 17,4 C 8,4 km/h (2 Bft)
09.09.2013 15:45 15,5 C 48 % 1024,0 hPa 0,0 l/m 6,8 km/h (2 Bft) S-SW 202 4,5 C 18,8 C 6,9 km/h (2 Bft)
09.09.2013 15:50 15,4 C 49 % 1024,0 hPa 0,0 l/m 6,8 km/h (2 Bft) S 180 4,7 C 19,1 C 8,2 km/h (2 Bft)
09.09.2013 15:55 15,5 C 48 % 1024,0 hPa 0,0 l/m 7,9 km/h (2 Bft) W-SW 247 4,5 C 18,7 C 10,1 km/h (2 Bft)
09.09.2013 16:00 15,7 C 48 % 1023,8 hPa 0,0 l/m 8,0 km/h (2 Bft) W-NW 292 4,7 C 18,5 C 4,5 km/h (1 Bft)
09.09.2013 16:05 15,9 C 47 % 1023,8 hPa 0,0 l/m 7,9 km/h (2 Bft) W-SW 247 4,6 C 18,8 C 11,4 km/h (2 Bft)
09.09.2013 16:10 16,0 C 45 % 1023,8 hPa 0,0 l/m 7,7 km/h (2 Bft) S 180 4,1 C 18,7 C 10,6 km/h (2 Bft)
09.09.2013 16:15 16,1 C 45 % 1023,8 hPa 0,0 l/m 7,2 km/h (2 Bft) S-SO 157 4,2 C 19,1 C 5,8 km/h (2 Bft)
09.09.2013 16:20 16,2 C 45 % 1023,7 hPa 0,0 l/m 6,8 km/h (2 Bft) W 270 4,3 C 19,3 C 6,6 km/h (2 Bft)
09.09.2013 16:25 16,3 C 46 % 1023,7 hPa 0,0 l/m 6,3 km/h (2 Bft) S 180 4,7 C 19,8 C 9,8 km/h (2 Bft)
09.09.2013 16:30 16,6 C 46 % 1023,7 hPa 0,0 l/m 5,8 km/h (2 Bft) S 180 4,9 C 19,9 C 9,5 km/h (2 Bft)
09.09.2013 16:35 15,9 C 45 % 1023,7 hPa 0,0 l/m 7,4 km/h (2 Bft) S 180 4,0 C 19,3 C 8,7 km/h (2 Bft)
09.09.2013 16:40 15,7 C 47 % 1023,4 hPa 0,0 l/m 7,1 km/h (2 Bft) S-SW 202 4,4 C 19,4 C 2,9 km/h (1 Bft)
09.09.2013 16:45 15,5 C 49 % 1023,4 hPa 0,0 l/m 5,3 km/h (1 Bft) S 180 4,8 C 20,1 C 5,0 km/h (1 Bft)
09.09.2013 16:50 15,2 C 49 % 1023,4 hPa 0,0 l/m 5,6 km/h (1 Bft) S 180 4,6 C 20,1 C 7,7 km/h (2 Bft)
09.09.2013 16:55 15,0 C 48 % 1023,4 hPa 0,0 l/m 6,3 km/h (2 Bft) S-SW 202 4,1 C 19,9 C 8,0 km/h (2 Bft)
09.09.2013 17:00 14,9 C 50 % 1023,3 hPa 0,0 l/m 6,3 km/h (2 Bft) W-SW 247 4,6 C 19,9 C 9,2 km/h (2 Bft)
09.09.2013 17:05 14,7 C 53 % 1023,3 hPa 0,0 l/m 4,7 km/h (1 Bft) S-SW 202 5,2 C 20,3 C 1,9 km/h (1 Bft)
09.09.2013 17:10 14,5 C 53 % 1023,3 hPa 0,0 l/m 3,5 km/h (1 Bft) S-SO 157 5,0 C 20,8 C 2,4 km/h (1 Bft)
09.09.2013 17:15 14,6 C 52 % 1023,3 hPa 0,0 l/m 4,0 km/h (1 Bft) S 180 4,9 C 20,8 C 7,1 km/h (2 Bft)
09.09.2013 17:20 14,5 C 52 % 1023,0 hPa 0,0 l/m 4,8 km/h (1 Bft) SW 225 4,8 C 20,6 C 3,1 km/h (1 Bft)
09.09.2013 17:25 14,3 C 53 % 1023,0 hPa 0,0 l/m 4,2 km/h (1 Bft) O 90 4,9 C 20,8 C 5,3 km/h (1 Bft)
09.09.2013 17:30 14,2 C 54 % 1023,0 hPa 0,0 l/m 3,7 km/h (1 Bft) S 180 5,0 C 20,9 C 9,2 km/h (2 Bft)
09.09.2013 17:35 14,2 C 54 % 1023,0 hPa 0,0 l/m 4,3 km/h (1 Bft) S-SW 202 5,0 C 20,7 C 5,5 km/h (1 Bft)
09.09.2013 17:40 14,1 C 54 % 1022,9 hPa 0,0 l/m 4,8 km/h (1 Bft) SW 225 4,9 C 20,5 C 5,1 km/h (1 Bft)
09.09.2013 17:45 13,8 C 55 % 1022,9 hPa 0,0 l/m 3,7 km/h (1 Bft) W-SW 247 4,9 C 20,7 C 1,8 km/h (1 Bft)
09.09.2013 17:50 13,6 C 57 % 1022,9 hPa 0,0 l/m 2,6 km/h (1 Bft) S-SW 202 5,2 C 21,0 C 5,8 km/h (2 Bft)
09.09.2013 17:55 13,7 C 57 % 1022,9 hPa 0,0 l/m 3,1 km/h (1 Bft) S 180 5,3 C 21,0 C 5,8 km/h (2 Bft)
09.09.2013 18:00 13,4 C 57 % 1022,4 hPa 0,0 l/m 3,5 km/h (1 Bft) S 180 5,1 C 20,9 C 3,9 km/h (1 Bft)
09.09.2013 18:05 13,2 C 58 % 1022,4 hPa 0,0 l/m 2,7 km/h (1 Bft) S-SW 202 5,1 C 21,0 C 5,1 km/h (1 Bft)
09.09.2013 18:10 12,9 C 59 % 1022,4 hPa 0,0 l/m 2,1 km/h (1 Bft) S 180 5,1 C 21,0 C 3,4 km/h (1 Bft)
09.09.2013 18:15 13,0 C 59 % 1022,4 hPa 0,0 l/m 3,2 km/h (1 Bft) S 180 5,2 C 20,6 C 3,7 km/h (1 Bft)
09.09.2013 18:20 12,8 C 59 % 1022,0 hPa 0,0 l/m 3,1 km/h (1 Bft) W-NW 292 5,0 C 20,4 C 2,3 km/h (1 Bft)
09.09.2013 18:25 12,7 C 60 % 1022,0 hPa 0,0 l/m 2,4 km/h (1 Bft) O-SO 112 5,1 C 20,2 C 1,8 km/h (1 Bft)
09.09.2013 18:30 12,6 C 61 % 1022,0 hPa 0,0 l/m 1,9 km/h (1 Bft) O 90 5,3 C 20,3 C 1,6 km/h (1 Bft)
09.09.2013 18:35 12,6 C 62 % 1022,0 hPa 0,0 l/m 1,6 km/h (1 Bft) SO 135 5,5 C 20,3 C 3,2 km/h (1 Bft)
09.09.2013 18:40 12,5 C 62 % 1022,2 hPa 0,0 l/m 1,1 km/h (1 Bft) O-NO 67 5,4 C 20,2 C 0,0 km/h (0 Bft)
09.09.2013 18:45 12,5 C 61 % 1022,2 hPa 0,0 l/m 0,6 km/h (0 Bft) NO 45 5,2 C 20,1 C 1,9 km/h (1 Bft)
09.09.2013 18:50 12,3 C 62 % 1022,2 hPa 0,0 l/m 1,1 km/h (1 Bft) NO 45 5,2 C 19,7 C 2,3 km/h (1 Bft)
09.09.2013 18:55 12,1 C 63 % 1022,2 hPa 0,0 l/m 1,6 km/h (1 Bft) O 90 5,3 C 19,1 C 2,7 km/h (1 Bft)
09.09.2013 19:00 12,1 C 64 % 1022,1 hPa 0,0 l/m 1,9 km/h (1 Bft) O 90 5,5 C 18,6 C 2,6 km/h (1 Bft)
09.09.2013 19:05 11,9 C 67 % 1022,1 hPa 0,0 l/m 2,4 km/h (1 Bft) O 90 6,0 C 17,9 C 2,9 km/h (1 Bft)
09.09.2013 19:10 11,8 C 68 % 1022,1 hPa 0,0 l/m 2,9 km/h (1 Bft) O 90 6,1 C 17,2 C 4,2 km/h (1 Bft)
09.09.2013 19:15 11,6 C 71 % 1022,1 hPa 0,0 l/m 3,4 km/h (1 Bft) NO 45 6,5 C 16,1 C 4,2 km/h (1 Bft)
09.09.2013 19:20 11,4 C 72 % 1021,8 hPa 0,0 l/m 3,5 km/h (1 Bft) O-SO 112 6,5 C 14,6 C 3,1 km/h (1 Bft)
09.09.2013 19:25 10,7 C 74 % 1021,8 hPa 0,0 l/m 2,7 km/h (1 Bft) O-NO 67 6,3 C 12,8 C 3,5 km/h (1 Bft)
09.09.2013 19:30 10,7 C 75 % 1021,8 hPa 0,0 l/m 2,6 km/h (1 Bft) NO 45 6,5 C 11,9 C 4,0 km/h (1 Bft)
09.09.2013 19:35 10,6 C 75 % 1021,8 hPa 0,0 l/m 3,2 km/h (1 Bft) NO 45 6,4 C 11,1 C 2,9 km/h (1 Bft)
09.09.2013 19:40 10,4 C 75 % 1021,8 hPa 0,0 l/m 3,5 km/h (1 Bft) O 90 6,2 C 10,7 C 5,3 km/h (1 Bft)
09.09.2013 19:45 9,9 C 77 % 1021,8 hPa 0,0 l/m 4,7 km/h (1 Bft) NO 45 6,1 C 10,1 C 4,5 km/h (1 Bft)
09.09.2013 19:50 9,7 C 77 % 1021,8 hPa 0,0 l/m 4,5 km/h (1 Bft) O-NO 67 5,9 C 9,8 C 4,0 km/h (1 Bft)
09.09.2013 19:55 9,6 C 78 % 1021,8 hPa 0,0 l/m 3,7 km/h (1 Bft) O-SO 112 6,0 C 9,5 C 2,6 km/h (1 Bft)
09.09.2013 20:00 9,2 C 78 % 1021,6 hPa 0,0 l/m 3,7 km/h (1 Bft) O 90 5,6 C 9,2 C 3,9 km/h (1 Bft)
09.09.2013 20:05 9,0 C 78 % 1021,6 hPa 0,0 l/m 3,1 km/h (1 Bft) O-SO 112 5,4 C 9,0 C 2,1 km/h (1 Bft)
09.09.2013 20:10 8,7 C 78 % 1021,6 hPa 0,0 l/m 2,3 km/h (1 Bft) O-SO 112 5,1 C 8,9 C 1,6 km/h (1 Bft)
09.09.2013 20:15 8,7 C 79 % 1021,6 hPa 0,0 l/m 1,4 km/h (1 Bft) O 90 5,3 C 8,6 C 2,3 km/h (1 Bft)
09.09.2013 20:20 8,6 C 79 % 1021,7 hPa 0,0 l/m 1,3 km/h (1 Bft) O-SO 112 5,2 C 8,3 C 2,3 km/h (1 Bft)
09.09.2013 20:25 8,3 C 79 % 1021,7 hPa 0,0 l/m 1,1 km/h (1 Bft) SO 135 4,9 C 8,1 C 1,8 km/h (1 Bft)
09.09.2013 20:30 8,1 C 79 % 1021,7 hPa 0,0 l/m 0,8 km/h (0 Bft) SO 135 4,7 C 8,0 C 0,0 km/h (0 Bft)
09.09.2013 20:35 8,0 C 79 % 1021,7 hPa 0,0 l/m 0,3 km/h (0 Bft) O 90 4,6 C 7,8 C 2,6 km/h (1 Bft)
09.09.2013 20:40 7,9 C 80 % 1021,4 hPa 0,0 l/m 0,2 km/h (0 Bft) O-SO 112 4,7 C 7,7 C 0,0 km/h (0 Bft)
09.09.2013 20:45 7,6 C 80 % 1021,4 hPa 0,0 l/m 0,2 km/h (0 Bft) O-SO 112 4,4 C 7,4 C 0,0 km/h (0 Bft)
09.09.2013 20:50 7,6 C 81 % 1021,4 hPa 0,0 l/m 0,0 km/h (0 Bft) N 360 4,6 C 7,2 C 0,0 km/h (0 Bft)
09.09.2013 20:55 7,3 C 81 % 1021,4 hPa 0,0 l/m 0,0 km/h (0 Bft) O 90 4,3 C 7,0 C 0,0 km/h (0 Bft)
09.09.2013 21:00 7,2 C 81 % 1021,5 hPa 0,0 l/m 0,0 km/h (0 Bft) O 90 4,2 C 6,8 C 0,0 km/h (0 Bft)
09.09.2013 21:05 6,9 C 82 % 1021,5 hPa 0,0 l/m 0,0 km/h (0 Bft) O-NO 67 4,0 C 6,7 C 0,0 km/h (0 Bft)
09.09.2013 21:10 6,8 C 82 % 1021,5 hPa 0,0 l/m 0,0 km/h (0 Bft) S-SW 202 3,9 C 6,5 C 0,0 km/h (0 Bft)
09.09.2013 21:15 6,8 C 83 % 1021,5 hPa 0,0 l/m 0,0 km/h (0 Bft) N-NO 22 4,1 C 6,4 C 0,0 km/h (0 Bft)
09.09.2013 21:20 6,6 C 83 % 1021,4 hPa 0,0 l/m 0,0 km/h (0 Bft) NO 45 3,9 C 6,3 C 0,0 km/h (0 Bft)
09.09.2013 21:25 6,5 C 83 % 1021,4 hPa 0,0 l/m 0,0 km/h (0 Bft) O 90 3,8 C 6,2 C 0,0 km/h (0 Bft)
09.09.2013 21:30 6,4 C 84 % 1021,4 hPa 0,0 l/m 0,0 km/h (0 Bft) W-SW 247 3,9 C 6,2 C 0,0 km/h (0 Bft)
09.09.2013 21:35 6,4 C 84 % 1021,4 hPa 0,0 l/m 0,0 km/h (0 Bft) O 90 3,9 C 6,0 C 0,0 km/h (0 Bft)
09.09.2013 21:40 6,5 C 85 % 1021,4 hPa 0,0 l/m 0,0 km/h (0 Bft) O 90 4,2 C 6,0 C 0,0 km/h (0 Bft)
09.09.2013 21:45 6,2 C 85 % 1021,4 hPa 0,0 l/m 0,0 km/h (0 Bft) S 180 3,9 C 6,0 C 0,0 km/h (0 Bft)
09.09.2013 21:50 6,3 C 85 % 1021,4 hPa 0,0 l/m 0,0 km/h (0 Bft) O-NO 67 4,0 C 5,9 C 0,0 km/h (0 Bft)
09.09.2013 21:55 6,1 C 85 % 1021,4 hPa 0,0 l/m 0,0 km/h (0 Bft) N-NO 22 3,8 C 5,9 C 0,0 km/h (0 Bft)
09.09.2013 22:00 6,0 C 85 % 1021,1 hPa 0,0 l/m 0,0 km/h (0 Bft) S 180 3,7 C 5,9 C 0,0 km/h (0 Bft)
09.09.2013 22:05 6,0 C 86 % 1021,1 hPa 0,0 l/m 0,0 km/h (0 Bft) O-NO 67 3,8 C 5,7 C 0,0 km/h (0 Bft)
09.09.2013 22:10 6,1 C 86 % 1021,1 hPa 0,0 l/m 0,0 km/h (0 Bft) N-NO 22 3,9 C 5,6 C 0,0 km/h (0 Bft)
09.09.2013 22:15 6,0 C 86 % 1021,1 hPa 0,0 l/m 0,0 km/h (0 Bft) O 90 3,8 C 5,6 C 0,0 km/h (0 Bft)
09.09.2013 22:20 6,0 C 86 % 1020,8 hPa 0,0 l/m 0,0 km/h (0 Bft) N 360 3,8 C 5,6 C 0,0 km/h (0 Bft)
09.09.2013 22:25 5,9 C 87 % 1020,8 hPa 0,0 l/m 0,0 km/h (0 Bft) S 180 3,9 C 5,7 C 0,0 km/h (0 Bft)
09.09.2013 22:30 5,9 C 87 % 1020,8 hPa 0,0 l/m 0,0 km/h (0 Bft) S 180 3,9 C 5,7 C 1,9 km/h (1 Bft)
09.09.2013 22:35 6,0 C 87 % 1020,8 hPa 0,0 l/m 0,0 km/h (0 Bft) NW 315 4,0 C 5,8 C 0,0 km/h (0 Bft)
09.09.2013 22:40 5,8 C 88 % 1020,7 hPa 0,0 l/m 0,0 km/h (0 Bft) W 270 4,0 C 5,7 C 0,0 km/h (0 Bft)
09.09.2013 22:45 5,9 C 88 % 1020,7 hPa 0,0 l/m 0,0 km/h (0 Bft) O-NO 67 4,1 C 5,5 C 0,0 km/h (0 Bft)
09.09.2013 22:50 5,8 C 88 % 1020,7 hPa 0,0 l/m 0,0 km/h (0 Bft) N-NO 22 4,0 C 5,5 C 0,0 km/h (0 Bft)
09.09.2013 22:55 5,7 C 88 % 1020,7 hPa 0,0 l/m 0,0 km/h (0 Bft) N-NW 337 3,9 C 5,4 C 0,0 km/h (0 Bft)
09.09.2013 23:00 5,7 C 88 % 1020,8 hPa 0,0 l/m 0,0 km/h (0 Bft) W 270 3,9 C 5,4 C 0,0 km/h (0 Bft)
09.09.2013 23:05 5,7 C 89 % 1020,8 hPa 0,0 l/m 0,0 km/h (0 Bft) NO 45 4,0 C 5,4 C 0,0 km/h (0 Bft)
09.09.2013 23:10 5,6 C 89 % 1020,8 hPa 0,0 l/m 0,0 km/h (0 Bft) O-NO 67 3,9 C 5,4 C 0,0 km/h (0 Bft)
09.09.2013 23:15 5,6 C 89 % 1020,8 hPa 0,0 l/m 0,0 km/h (0 Bft) O-NO 67 3,9 C 5,3 C 0,0 km/h (0 Bft)
09.09.2013 23:20 5,8 C 89 % 1020,6 hPa 0,0 l/m 0,0 km/h (0 Bft) O 90 4,1 C 5,4 C 0,0 km/h (0 Bft)
09.09.2013 23:25 5,9 C 89 % 1020,6 hPa 0,0 l/m 0,0 km/h (0 Bft) O-SO 112 4,2 C 5,5 C 0,0 km/h (0 Bft)
09.09.2013 23:30 6,2 C 89 % 1020,6 hPa 0,0 l/m 0,0 km/h (0 Bft) O 90 4,5 C 5,6 C 0,0 km/h (0 Bft)
09.09.2013 23:35 6,2 C 90 % 1020,6 hPa 0,0 l/m 0,2 km/h (0 Bft) O 90 4,7 C 5,7 C 1,9 km/h (1 Bft)
09.09.2013 23:40 6,1 C 90 % 1020,2 hPa 0,0 l/m 0,3 km/h (0 Bft) O-SO 112 4,6 C 5,8 C 0,0 km/h (0 Bft)
09.09.2013 23:45 6,1 C 90 % 1020,2 hPa 0,0 l/m 0,5 km/h (0 Bft) S-SW 202 4,6 C 5,8 C 2,7 km/h (1 Bft)
09.09.2013 23:50 6,2 C 90 % 1020,2 hPa 0,0 l/m 0,5 km/h (0 Bft) W-NW 292 4,7 C 5,9 C 0,0 km/h (0 Bft)
09.09.2013 23:55 6,0 C 90 % 1020,2 hPa 0,0 l/m 0,3 km/h (0 Bft) O 90 4,5 C 5,8 C 0,0 km/h (0 Bft)
_ Min-Zeit 23:15 15:10 23:55 - 23:30 - - 22:00 23:15 23:55
Minimum _ 5,6 C 43 % 1020,2 hPa - 0,0 km/h (0 Bft) - - 3,7 C 5,3 C 0,0 km/h (0 Bft)
_ Max-Zeit 14:30 08:55 12:15 10:20 12:30 - - 00:15 18:10 12:30
Maximum _ 17,2 C 95 % 1025,2 hPa 0,7 l/m 11,7 km/h
S-SO (2 Bft)
- - 12,1 C 21,0 C 21,7 km/h
S-SO (4 Bft)
Durchschnitt _ 11,4 C 81 % 1022,3 hPa #11,7 l/m 4,9 km/h (1 Bft) S - 7,9 C 11,9 C 6,6 km/h (2 Bft)